User: anonymous   Login
Location: Unspecified
(0.0000°N, 0.0000°E)
Time: 06:58:35
(UTC+00:00)
Language:

Meteosat 1 - Orbit

View from above orbital plane
View from above orbital plane
View from above satellite
View from above satellite

Ground track
Ground track

The orbit data is extracted from the following two-line orbital elements,

1 10489U 77108A   17200.81489674 -.00000118 +00000-0 +00000-0 0  9993
2 10489 012.3452 320.3380 0011531 355.3562 348.7925 01.00385925104624
Epoch (UTC): 19 July 2017 19:33:27
Eccentricity: 0.0011531
inclination: 12.3452°
perigee height: 35705 km
apogee height: 35803 km
right ascension of ascending node: 320.3380°
argument of perigee: 355.3562°
revolutions per day: 1.00385925
mean anomaly at epoch: 348.7925°
orbit number at epoch: 10462

The dashed part of the orbit path shows where the satellite is in the earth's shadow,  

DLR